Radiation Dose at Monitoring Post of Fukushima Daini Nuclear Power Station
Date,Time,MP-1(microSv/h),MP-2(microSv/h),MP-3(microSv/h),MP-4(microSv/h),MP-5(microSv/h),MP-6(microSv/h),MP-7(microSv/h),Wind Direction,Wind Velocity(m/s),Rain
2019/02/13,00:00,0.214,0.193,0.314,0.292,0.275,0.156,0.095,north-northwest,9.6,No
2019/02/13,00:10,0.213,0.192,0.315,0.292,0.276,0.158,0.095,north-northwest,8.6,No
2019/02/13,00:20,0.213,0.193,0.315,0.293,0.275,0.157,0.095,north-northwest,8.6,No
2019/02/13,00:30,0.214,0.194,0.315,0.292,0.276,0.157,0.094,north-northwest,8.5,No
2019/02/13,00:40,0.215,0.194,0.315,0.293,0.275,0.156,0.095,north-northwest,8.5,No
2019/02/13,00:50,0.213,0.193,0.315,0.293,0.276,0.158,0.095,north-northwest,9.0,No
2019/02/13,01:00,0.214,0.195,0.314,0.292,0.276,0.157,0.096,north-northwest,9.2,No
2019/02/13,01:10,0.214,0.194,0.315,0.293,0.276,0.157,0.095,north-northwest,9.6,No
2019/02/13,01:20,0.215,0.194,0.316,0.293,0.276,0.158,0.095,north-northwest,10.1,No
2019/02/13,01:30,0.213,0.192,0.315,0.293,0.275,0.158,0.094,north-northwest,9.8,No
2019/02/13,01:40,0.215,0.193,0.316,0.295,0.277,0.157,0.095,north-northwest,10.7,No
2019/02/13,01:50,0.213,0.193,0.314,0.293,0.276,0.157,0.094,north-northwest,10.3,No
2019/02/13,02:00,0.214,0.194,0.315,0.293,0.276,0.157,0.095,north-northwest,10.7,No
2019/02/13,02:10,0.215,0.193,0.316,0.292,0.276,0.157,0.095,north-northwest,10.9,No
2019/02/13,02:20,0.214,0.194,0.314,0.292,0.276,0.156,0.096,north-northwest,9.5,No
2019/02/13,02:30,0.215,0.193,0.315,0.293,0.275,0.157,0.096,north-northwest,9.5,No
2019/02/13,02:40,0.214,0.194,0.316,0.293,0.276,0.157,0.095,north-northwest,10.7,No
2019/02/13,02:50,0.214,0.193,0.315,0.293,0.277,0.156,0.094,north-northwest,6.4,No
2019/02/13,03:00,0.214,0.194,0.316,0.294,0.278,0.157,0.095,northwest,3.0,No
2019/02/13,03:10,0.214,0.195,0.314,0.293,0.277,0.157,0.095,north-northwest,4.6,No
2019/02/13,03:20,0.215,0.194,0.315,0.293,0.276,0.157,0.095,north-northwest,4.0,No
2019/02/13,03:30,0.214,0.194,0.315,0.294,0.276,0.157,0.095,north-northwest,6.3,No
2019/02/13,03:40,0.214,0.193,0.315,0.293,0.276,0.157,0.095,north-northwest,6.5,No
2019/02/13,03:50,0.214,0.194,0.315,0.294,0.275,0.157,0.095,north-northwest,5.4,No
2019/02/13,04:00,0.214,0.193,0.316,0.294,0.276,0.157,0.095,north-northwest,5.5,No
2019/02/13,04:10,0.215,0.193,0.314,0.292,0.275,0.156,0.095,northwest,7.0,No
2019/02/13,04:20,0.214,0.193,0.316,0.293,0.275,0.158,0.094,west-northwest,9.6,No
2019/02/13,04:30,0.214,0.192,0.315,0.292,0.275,0.157,0.095,northwest,8.8,No
2019/02/13,04:40,0.214,0.193,0.315,0.293,0.276,0.157,0.094,west-northwest,8.8,No
2019/02/13,04:50,0.215,0.193,0.315,0.293,0.275,0.157,0.095,northwest,7.7,No
2019/02/13,05:00,0.214,0.195,0.317,0.293,0.275,0.157,0.095,northwest,7.5,No
2019/02/13,05:10,0.214,0.194,0.316,0.293,0.274,0.157,0.095,northwest,8.5,No
2019/02/13,05:20,0.215,0.193,0.315,0.293,0.276,0.156,0.095,northwest,7.1,No
2019/02/13,05:30,0.214,0.193,0.314,0.292,0.276,0.157,0.095,northwest,8.1,No
2019/02/13,05:40,0.215,0.194,0.316,0.292,0.276,0.156,0.096,northwest,9.2,No
2019/02/13,05:50,0.215,0.193,0.315,0.294,0.276,0.157,0.096,northwest,9.5,No
2019/02/13,06:00,0.214,0.193,0.314,0.292,0.276,0.156,0.095,northwest,8.8,No
2019/02/13,06:10,0.214,0.194,0.314,0.292,0.276,0.156,0.094,west-northwest,9.5,No
2019/02/13,06:20,0.214,0.193,0.316,0.293,0.275,0.157,0.095,west-northwest,10.3,No
2019/02/13,06:30,0.214,0.193,0.314,0.294,0.274,0.157,0.095,west-northwest,8.4,No
2019/02/13,06:40,0.214,0.194,0.314,0.293,0.277,0.156,0.095,west-northwest,11.1,No
2019/02/13,06:50,0.215,0.193,0.315,0.293,0.276,0.157,0.095,west-northwest,8.4,No
2019/02/13,07:00,0.214,0.194,0.314,0.293,0.276,0.157,0.095,west-northwest,7.3,No
2019/02/13,07:10,0.215,0.193,0.316,0.293,0.276,0.157,0.095,west-northwest,5.9,No
2019/02/13,07:20,0.214,0.194,0.315,0.293,0.276,0.157,0.095,west-northwest,6.2,Yes
2019/02/13,07:30,0.215,0.194,0.315,0.291,0.276,0.157,0.095,west-northwest,5.5,Yes
2019/02/13,07:40,0.214,0.193,0.315,0.292,0.277,0.157,0.094,northwest,6.5,No
2019/02/13,07:50,0.214,0.194,0.314,0.294,0.275,0.157,0.095,northwest,7.7,No
2019/02/13,08:00,0.214,0.194,0.315,0.293,0.276,0.158,0.094,northwest,7.9,No
2019/02/13,08:10,0.214,0.194,0.315,0.293,0.275,0.156,0.094,northwest,7.1,No
2019/02/13,08:20,0.214,0.193,0.315,0.292,0.276,0.156,0.096,northwest,6.2,No
2019/02/13,08:30,0.214,0.194,0.315,0.292,0.278,0.158,0.096,northwest,9.2,No
2019/02/13,08:40,0.212,0.193,0.315,0.292,0.275,0.156,0.096,northwest,8.7,No
2019/02/13,08:50,0.213,0.193,0.315,0.293,0.275,0.157,0.096,northwest,8.8,No
2019/02/13,09:00,0.213,0.193,0.316,0.294,0.276,0.157,0.095,north-northwest,8.8,No
2019/02/13,09:10,0.213,0.193,0.316,0.293,0.277,0.157,0.095,north-northwest,8.5,No
2019/02/13,09:20,0.212,0.193,0.316,0.293,0.276,0.157,0.095,north-northwest,7.8,No
2019/02/13,09:30,0.212,0.193,0.315,0.294,0.277,0.157,0.095,northwest,7.0,No
2019/02/13,09:40,0.213,0.194,0.316,0.293,0.277,0.157,0.095,northwest,6.2,No
2019/02/13,09:50,0.213,0.194,0.316,0.292,0.277,0.157,0.096,north-northwest,5.9,No
2019/02/13,10:00,0.212,0.193,0.315,0.293,0.275,0.157,0.095,north-northwest,4.8,No
2019/02/13,10:10,0.211,0.194,0.315,0.292,0.276,0.157,0.095,north-northwest,3.7,No
2019/02/13,10:20,0.210,0.194,0.316,0.292,0.275,0.157,0.094,north-northwest,3.5,No
2019/02/13,10:30,0.211,0.194,0.315,0.292,0.277,0.157,0.095,north-northwest,2.5,No
2019/02/13,10:40,0.210,0.193,0.315,0.293,0.278,0.157,0.095,northwest,2.2,No
2019/02/13,10:50,0.209,0.194,0.317,0.291,0.276,0.157,0.094,north-northwest,2.6,No
2019/02/13,11:00,0.212,0.194,0.315,0.293,0.276,0.157,0.095,northwest,2.9,No
2019/02/13,11:10,0.210,0.192,0.314,0.292,0.276,0.157,0.094,northwest,7.3,No
2019/02/13,11:20,0.210,0.192,0.314,0.293,0.275,0.157,0.094,west-northwest,7.1,No
2019/02/13,11:30,0.210,0.193,0.314,0.292,0.277,0.156,0.094,west-northwest,5.1,No
2019/02/13,11:40,0.210,0.193,0.315,0.291,0.274,0.157,0.095,west-northwest,4.6,No
2019/02/13,11:50,0.213,0.194,0.315,0.292,0.276,0.157,0.095,west-northwest,7.0,No
2019/02/13,12:00,0.212,0.192,0.315,0.291,0.275,0.157,0.095,west-northwest,5.1,No
2019/02/13,12:10,0.211,0.192,0.315,0.293,0.275,0.156,0.095,west,3.6,No
2019/02/13,12:20,0.212,0.193,0.313,0.291,0.277,0.157,0.094,west-southwest,3.5,No
2019/02/13,12:30,0.212,0.193,0.315,0.292,0.277,0.157,0.094,west-northwest,6.0,No
2019/02/13,12:40,0.212,0.193,0.313,0.291,0.277,0.158,0.094,west-northwest,6.7,No
2019/02/13,12:50,0.214,0.193,0.314,0.293,0.275,0.158,0.095,west-northwest,4.5,No
2019/02/13,13:00,0.213,0.194,0.313,0.292,0.276,0.157,0.094,west,3.8,No
2019/02/13,13:10,0.213,0.192,0.312,0.291,0.277,0.157,0.095,northwest,6.5,No
2019/02/13,13:20,0.211,0.194,0.313,0.292,0.276,0.157,0.094,northwest,6.5,No
2019/02/13,13:30,0.214,0.193,0.313,0.290,0.277,0.157,0.094,west-northwest,11.2,No
2019/02/13,13:40,0.213,0.193,0.314,0.293,0.276,0.157,0.094,west-northwest,8.6,No
2019/02/13,13:50,0.212,0.193,0.315,0.291,0.276,0.158,0.094,west-northwest,5.2,No
2019/02/13,14:00,0.213,0.194,0.313,0.291,0.279,0.157,0.094,west,5.6,No
2019/02/13,14:10,0.214,0.193,0.314,0.294,0.276,0.157,0.094,northwest,6.5,No
2019/02/13,14:20,0.213,0.193,0.314,0.292,0.276,0.157,0.094,west-northwest,9.2,No
2019/02/13,14:30,0.213,0.193,0.315,0.292,0.277,0.157,0.094,west-northwest,8.7,No
2019/02/13,14:40,0.214,0.193,0.315,0.295,0.277,0.156,0.095,west-northwest,9.2,No
2019/02/13,14:50,0.213,0.194,0.315,0.293,0.278,0.157,0.094,west-northwest,12.6,No
2019/02/13,15:00,0.214,0.193,0.314,0.293,0.279,0.157,0.094,west-northwest,10.4,No
2019/02/13,15:10,0.214,0.192,0.316,0.295,0.277,0.158,0.095,west-northwest,11.5,No
2019/02/13,15:20,0.213,0.193,0.314,0.295,0.278,0.157,0.095,west-northwest,11.4,No
2019/02/13,15:30,0.215,0.193,0.317,0.294,0.277,0.157,0.095,west-northwest,11.8,No
2019/02/13,15:40,0.215,0.194,0.317,0.295,0.277,0.157,0.095,west-northwest,12.5,No
2019/02/13,15:50,0.215,0.195,0.317,0.294,0.278,0.157,0.095,west-northwest,11.7,No
2019/02/13,16:00,0.213,0.194,0.317,0.295,0.279,0.157,0.095,west-northwest,9.0,No
2019/02/13,16:10,0.214,0.195,0.316,0.293,0.278,0.157,0.095,northwest,11.2,No
2019/02/13,16:20,0.214,0.194,0.317,0.295,0.279,0.157,0.094,northwest,6.6,No
2019/02/13,16:30,0.215,0.195,0.317,0.294,0.279,0.157,0.095,northwest,6.7,No
2019/02/13,16:40,0.215,0.195,0.317,0.294,0.277,0.158,0.096,north-northwest,5.4,No
2019/02/13,16:50,0.215,0.194,0.317,0.294,0.277,0.157,0.095,northwest,7.3,No
2019/02/13,17:00,0.214,0.195,0.315,0.294,0.278,0.158,0.095,north-northwest,5.4,No
2019/02/13,17:10,0.215,0.195,0.316,0.293,0.279,0.157,0.095,north-northwest,4.6,No
2019/02/13,17:20,0.215,0.195,0.316,0.295,0.278,0.157,0.095,northwest,3.4,No
2019/02/13,17:30,0.216,0.194,0.317,0.295,0.277,0.157,0.095,northwest,3.1,No
2019/02/13,17:40,0.215,0.194,0.315,0.293,0.277,0.157,0.095,northwest,3.5,No
2019/02/13,17:50,0.215,0.195,0.315,0.294,0.277,0.159,0.095,west-northwest,2.7,No
2019/02/13,18:00,0.215,0.196,0.315,0.294,0.277,0.158,0.095,west-northwest,3.7,No
2019/02/13,18:10,0.214,0.194,0.316,0.294,0.276,0.158,0.095,northwest,3.4,No
2019/02/13,18:20,0.214,0.194,0.317,0.293,0.276,0.158,0.095,west,2.2,No
2019/02/13,18:30,0.215,0.193,0.315,0.294,0.278,0.158,0.094,north-northwest,2.9,No
2019/02/13,18:40,0.214,0.194,0.315,0.293,0.276,0.157,0.095,northwest,2.7,No
2019/02/13,18:50,0.214,0.194,0.315,0.293,0.275,0.157,0.095,northwest,2.1,No
2019/02/13,19:00,0.214,0.195,0.316,0.293,0.276,0.158,0.094,north,1.6,No
2019/02/13,19:10,0.215,0.194,0.314,0.294,0.276,0.158,0.095,north-northwest,1.6,No
2019/02/13,19:20,0.214,0.194,0.316,0.293,0.276,0.157,0.095,northwest,2.4,No
2019/02/13,19:30,0.215,0.193,0.317,0.294,0.276,0.158,0.095,north,1.7,No
2019/02/13,19:40,0.214,0.195,0.316,0.294,0.277,0.158,0.094,north-northwest,1.8,No
2019/02/13,19:50,0.215,0.194,0.316,0.296,0.275,0.157,0.095,northwest,2.5,No
2019/02/13,20:00,0.214,0.194,0.315,0.294,0.277,0.156,0.095,north,3.2,No
2019/02/13,20:10,0.215,0.194,0.315,0.294,0.277,0.157,0.094,north-northwest,5.0,No
2019/02/13,20:20,0.214,0.194,0.316,0.293,0.277,0.157,0.095,north-northwest,6.0,No
2019/02/13,20:30,0.215,0.194,0.317,0.294,0.276,0.158,0.095,northwest,5.8,No
2019/02/13,20:40,0.215,0.194,0.315,0.295,0.276,0.158,0.095,north-northwest,7.6,No
2019/02/13,20:50,0.214,0.194,0.316,0.293,0.276,0.157,0.096,northwest,6.8,No
2019/02/13,21:00,0.214,0.194,0.315,0.295,0.276,0.158,0.094,northwest,7.3,No
2019/02/13,21:10,0.214,0.195,0.316,0.294,0.277,0.158,0.095,northwest,7.9,No
2019/02/13,21:20,0.215,0.194,0.317,0.295,0.277,0.157,0.096,northwest,6.3,No
2019/02/13,21:30,0.215,0.193,0.316,0.294,0.277,0.158,0.095,northwest,6.3,No
2019/02/13,21:40,0.214,0.195,0.316,0.294,0.275,0.157,0.095,northwest,3.9,No
2019/02/13,21:50,0.215,0.193,0.316,0.294,0.276,0.157,0.094,northwest,1.8,No
2019/02/13,22:00,0.215,0.193,0.316,0.294,0.276,0.157,0.095,northwest,0.7,No
2019/02/13,22:10,0.214,0.195,0.316,0.292,0.276,0.158,0.095,north,0.6,No
2019/02/13,22:20,0.216,0.193,0.316,0.294,0.277,0.158,0.095,north-northeast,1.5,No
2019/02/13,22:30,0.214,0.194,0.316,0.295,0.276,0.158,0.095,northwest,2.7,No
2019/02/13,22:40,0.214,0.194,0.316,0.293,0.276,0.158,0.095,north-northwest,4.0,No
2019/02/13,22:50,0.215,0.193,0.316,0.292,0.275,0.158,0.095,north-northwest,4.6,No
2019/02/13,23:00,0.214,0.194,0.316,0.293,0.275,0.157,0.095,northwest,5.8,No
2019/02/13,23:10,0.214,0.193,0.316,0.295,0.277,0.157,0.095,northwest,5.8,No
2019/02/13,23:20,0.214,0.193,0.316,0.294,0.276,0.157,0.095,northwest,5.5,No
2019/02/13,23:30,0.213,0.194,0.316,0.294,0.276,0.156,0.095,northwest,6.7,No
2019/02/13,23:40,0.215,0.193,0.317,0.295,0.277,0.158,0.096,northwest,8.8,No
2019/02/13,23:50,0.214,0.193,0.317,0.293,0.275,0.158,0.095,west-northwest,9.5,No
